STARLINK-30770, 58132

Orbit data source: Space-Track

STARLINK-30770, 58132 is a payload satellite owned by SpaceX/Seattle (US) in LEO that was launched on Sun, 22 Oct 2023 UTC via an FALCON 9 launch vehicle from the Air Force Eastern Test Range (AFETR). Payload-class satellites include a variety of spacecraft equipped with specific instruments for various scientific and technological missions. These include communications satellites like Starlink; space stations such as the ISS; scientific satellites like the Hubble; Earth observation satellites from companies like Planet Labs, Umbra, and HawkEye 360; GPS; miniature CubeSats for education and research; and military/defense satellites.

Loading next visibility...
Identifier
58132, 2023-162Q
Orbit
LEO
Country
Flag of USUS
Related business
Manufacturer
SpaceX/Seattle
Mission
Operational Commercial Communications
Bus & Motor
STARLINK V2M, Unknown motor
Mass
730 kg wet, ~700 kg dry
Launch date (UTC)
2023-10-22 (2 years ago)
Launch vehicle
FALCON 9
Launch site
Air Force Eastern Test Range (AFETR)
Object type
Payload
Rocket body
Debris
Shape & HBR
Box + 2 Pan, 17.7 m
Radar Cross Section
33.884 m², Large (>1 m²)

Expand to show TLE details & history
Last TLE update: 1 day ago

TLE from 1 day ago
0 STARLINK-30770
1 58132U 23162Q   25348.69988109  .00000923  00000-0  83418-4 0  9997
2 58132  43.0023 235.0223 0001040 273.6305  86.4418 15.02530927119513
Epoch: 2025-12-14T16:47Z
TLE epoch observation values (Epoch: 2025-12-14T16:47:49.726Z)
Latitude
-0.00003°
Longitude
-100.54397°
Altitude
558.829 km
Speed
7.584 km/s
True Right ascension
15h 40m 05s
True Declination
0° 00' 00"
Sunlit
Object was in daylight at epoch
Visualization orbit readout
Latitude
Unknown
Longitude
Unknown
Altitude
Unknown
Speed
Unknown
Apparent Right ascension
Unknown
Apparent Declination
Unknown
Sunlit
N/A
Visualization observer readout
Local Sidereal Time
15:11:05
Azimuth
Unknown
Elevation
Unknown
Doppler factor
Unknown
Orbital elements
Apogee altitude
561.74 km
Perigee altitude
560.297 km
Semi-major axis
6,939.156 km
Eccentricity
0.0001
Inclination
43.0023°
RAAN
235.0223°
Arg. of periapsis
273.6305°
True anomaly
86.45369°
Mean anomaly
86.4418°
Eccentric anomaly
86.44775°
Mean motion
3.75477 °/min
Orbital period
95.88 mins
BSTAR
0.000083418
Loading maneuver chart data...
Computing Atmospheric mass density...
Loading historical data...
Loading historical data...
Loading historical data...
Loading historical data...
Loading historical data...
Loading historical data...
Loading historical data...

Documentation

Showing up to 5 results
|